Location: ????????
(60.4333°N, 46.4710°E)
Time: 04:06:27
(UTC+00:00)

Cosmos 1939 Rocket - Pass Details

Date: 25 November 2020
Orbit: 532 x 584 km, 97.4° (Epoch: 19 January)

Event Time Altitude Azimuth Distance (km) Brightness Sun altitude
Rises 12:59:28 0° 115° (ESE) 2,689 6.0 -6.4°
Reaches altitude 10° 13:02:01 10° 97° (E) 1,808 5.0 -6.7°
Maximum altitude 13:04:48 19° 52° (NE) 1,338 4.2 -7.0°
Drops below altitude 10° 13:07:37 10° 7° (N) 1,833 5.1 -7.3°
Sets 13:10:13 0° 349° (N) 2,741 6.2 -7.6°
